Theta_e
348 351 354 357 358 358 356 358 357 356 356 355 355 355 354 354 355 355 355 354 353 353 353 352 353 352 351 352 352 351 351 351 352 352 353 353 352 350 350 350 350 350 350 349 349 348 348 348 350 351 350 350 350 350 349 347 345 344 344 343 343 343 342 342 342 342 342 339 338 338 337 337 338 338 339 341 343 342 341 343 342 339 339 341 343
348 353 355 357 357 357 358 357 357 356 356 355 354 353 354 354 354 354 354 354 354 354 354 353 353 352 351 351 352 352 352 352 352 352 353 353 352 352 351 351 351 352 352 351 350 348 347 349 350 351 351 350 351 350 349 348 347 345 344 343 343 342 342 343 343 342 342 340 338 338 338 337 337 336 340 340 343 343 342 342 343 339 339 342 343
351 352 355 356 357 357 357 356 356 356 356 354 353 355 354 354 354 354 353 354 354 354 353 353 352 352 352 352 352 352 352 352 352 352 352 353 353 353 353 353 353 353 352 351 350 349 349 348 348 349 349 350 349 349 349 347 347 346 344 342 342 342 342 343 343 343 343 344 340 337 338 339 337 337 337 340 341 342 342 342 343 342 340 343 343
349 352 355 356 357 356 356 357 356 356 355 354 355 355 354 353 354 354 354 354 354 354 353 353 352 352 352 352 352 351 352 352 352 351 352 351 354 354 354 353 353 353 352 351 350 347 347 348 347 347 346 348 349 348 349 348 347 345 345 344 343 343 343 343 344 343 344 343 340 339 337 331 334 337 336 338 339 341 342 342 343 343 343 343 343
350 353 354 354 354 355 356 355 355 355 355 355 354 354 354 354 354 354 354 354 353 353 353 353 353 352 352 352 352 352 352 352 352 351 351 351 351 354 353 353 353 351 350 349 349 348 346 345 346 346 346 347 348 348 348 347 347 346 346 345 343 343 343 343 344 344 341 342 341 338 332 330 330 337 338 337 337 339 341 341 341 342 342 341 342
350 352 353 354 354 354 355 355 356 356 355 355 355 354 354 355 355 355 354 353 353 353 353 353 353 352 352 352 352 352 352 351 351 351 353 352 352 353 352 350 349 348 348 349 349 348 348 347 345 346 346 347 347 347 347 346 346 345 345 345 345 344 343 342 343 344 342 340 339 334 333 331 331 333 337 335 336 339 340 340 340 340 340 341 341
350 352 353 354 353 354 354 355 356 355 355 355 355 355 355 354 354 354 354 353 353 352 352 352 352 352 352 352 352 351 351 351 351 351 351 352 352 351 350 350 349 349 347 347 348 348 347 346 344 345 346 346 347 346 346 346 346 345 345 344 344 344 344 344 343 343 344 342 332 331 333 333 332 332 337 337 336 338 337 338 339 338 339 338 339
351 352 353 353 353 354 355 355 355 355 355 355 355 354 354 354 354 354 354 353 352 352 352 351 351 352 352 351 351 351 351 350 350 350 350 351 350 351 350 349 348 348 347 347 347 347 346 346 346 345 345 346 346 346 346 345 345 344 344 344 344 344 344 343 343 344 344 338 331 332 333 334 333 333 337 337 337 337 337 336 336 337 337 337 336
348 351 352 352 352 355 355 354 355 355 355 354 354 354 354 354 354 354 353 352 352 351 351 351 351 351 351 351 351 351 350 350 349 349 351 351 352 352 351 350 350 351 351 352 348 346 346 345 346 346 346 346 346 345 345 345 345 345 345 344 345 345 344 345 344 346 341 333 332 333 335 334 331 330 334 335 337 336 335 336 336 335 335 335 335
349 351 352 352 353 355 354 354 355 355 354 354 354 354 354 354 354 353 352 352 352 351 351 351 350 350 350 351 351 350 350 349 349 350 350 350 350 350 350 350 348 346 347 346 346 346 346 345 344 346 346 345 344 344 345 345 345 346 345 345 344 344 346 345 341 339 332 331 332 334 335 337 330 329 334 337 337 336 334 334 337 334 334 335 335
349 350 351 352 353 353 353 354 354 354 354 354 354 354 354 353 353 353 352 352 351 351 351 351 351 350 350 350 351 350 350 350 350 350 350 350 349 349 348 348 348 348 346 347 347 347 346 344 345 345 345 344 344 344 345 345 344 345 345 344 344 346 347 343 338 332 332 332 333 335 336 338 329 330 336 336 336 334 334 334 334 336 337 337 337
348 350 351 352 355 352 353 354 354 354 354 354 354 353 353 353 352 352 352 351 351 351 351 351 351 351 350 350 350 350 351 351 350 349 349 349 348 348 347 347 346 347 350 349 348 347 346 345 345 345 345 344 344 345 345 345 344 345 344 344 345 346 347 342 334 332 332 333 335 336 336 334 331 333 337 337 337 337 336 335 335 335 336 336 336
348 349 351 351 352 353 353 353 354 354 354 354 354 353 352 352 352 352 351 351 351 350 351 351 351 351 350 350 350 350 351 351 350 349 348 348 348 347 347 346 346 348 349 349 348 347 347 346 345 345 345 344 343 344 344 345 344 344 344 344 346 347 346 341 332 333 335 337 337 336 334 332 330 336 335 337 336 335 335 335 334 334 334 334 337
347 349 350 351 351 354 353 352 353 354 353 353 352 352 352 351 351 351 351 351 351 351 351 350 350 350 350 350 350 350 351 351 350 349 348 347 347 347 346 347 348 347 348 348 348 347 347 346 345 344 344 343 343 343 344 345 344 344 344 344 346 347 345 340 337 334 336 337 338 337 336 335 332 337 336 336 336 336 336 335 335 334 334 335 334
346 348 350 351 351 352 354 352 352 353 352 351 351 351 351 351 351 351 351 351 351 351 350 350 349 349 349 349 350 350 350 350 350 349 348 347 347 347 346 346 347 347 347 347 347 347 346 345 345 343 343 342 342 343 343 344 343 343 344 344 346 347 345 336 333 334 336 338 338 338 336 335 338 336 336 337 336 336 335 334 334 334 334 334 333
347 348 349 349 350 351 351 354 353 352 351 351 351 351 351 351 351 351 351 350 350 350 350 350 349 349 349 348 349 349 350 350 349 349 348 347 347 347 348 348 348 347 347 347 347 346 346 345 345 343 343 343 343 343 343 343 342 342 343 346 346 348 344 339 332 333 334 335 336 336 336 337 338 335 336 335 335 334 335 333 333 333 333 333 333
347 348 347 348 349 349 350 351 351 351 351 351 350 350 350 350 350 350 350 350 350 350 349 349 349 349 348 348 348 349 349 349 349 348 347 347 347 348 348 347 347 346 346 346 346 345 345 345 344 344 343 343 342 343 342 342 342 342 344 344 346 348 344 339 331 332 333 337 337 335 334 334 338 337 335 336 336 335 334 333 333 334 333 333 332
347 347 346 347 347 348 349 349 348 349 348 349 349 349 349 349 349 349 349 349 349 349 349 349 349 348 348 348 348 348 348 348 348 347 347 347 347 347 347 347 346 345 345 345 345 344 344 344 344 343 343 342 342 342 342 342 342 342 342 345 346 348 342 338 331 333 336 339 334 335 334 339 339 337 337 335 335 335 335 335 334 333 333 332 332
345 345 346 346 347 348 347 347 348 347 346 346 346 347 350 349 349 349 348 348 348 348 348 348 349 348 348 348 349 348 349 348 347 347 347 347 347 347 346 346 345 345 344 344 344 344 344 343 343 343 342 341 341 341 341 341 341 342 342 345 346 345 341 337 332 334 336 334 333 332 334 339 339 338 338 337 335 334 334 333 333 333 333 333 332
343 343 344 345 347 346 345 345 346 347 346 346 346 347 349 350 349 348 348 348 348 348 347 348 349 349 349 348 348 348 348 347 348 346 347 347 346 345 346 345 345 344 343 343 344 344 343 343 342 342 341 341 340 341 341 341 341 341 342 344 343 343 335 331 333 333 332 332 334 332 339 340 339 338 338 336 336 336 334 333 333 333 333 333 332
340 340 341 344 345 344 344 344 345 346 345 345 345 345 348 350 349 349 349 349 348 348 347 349 348 348 347 348 346 344 342 344 345 344 347 345 346 346 345 345 344 344 343 343 343 343 342 342 341 341 341 340 340 341 341 341 341 341 342 343 342 334 330 331 331 333 333 334 335 334 340 339 338 338 337 337 336 335 333 333 333 333 333 333 333
336 339 342 344 343 342 343 343 344 344 344 345 344 344 346 347 344 345 346 346 347 348 345 343 347 341 346 343 338 344 339 339 343 347 344 346 345 345 345 344 344 344 343 342 342 341 341 341 341 340 340 339 339 330 333 338 339 340 342 342 335 333 331 331 331 332 333 332 335 338 341 339 338 338 337 337 337 336 335 335 334 334 334 333 333
336 338 340 342 341 341 343 342 342 342 342 342 342 341 340 340 341 341 344 346 346 344 340 341 335 336 335 336 338 336 336 339 341 344 344 345 344 345 345 344 343 343 342 341 341 340 339 339 339 338 338 338 330 327 328 327 327 337 338 333 333 332 330 331 331 332 332 334 333 341 341 340 338 337 338 337 338 338 336 335 335 334 333 333 333
336 337 338 340 340 340 341 341 341 340 340 340 340 337 337 338 339 339 339 340 340 340 337 335 334 334 334 334 334 336 335 337 347 347 346 343 342 344 344 344 343 341 341 342 342 340 340 340 339 339 336 333 325 327 328 326 325 325 328 331 332 331 330 331 331 332 333 338 336 342 339 339 338 338 338 338 338 338 336 335 335 334 333 333 333
336 338 338 338 339 339 340 339 339 339 340 340 338 336 336 336 335 335 336 337 336 334 334 333 334 334 334 334 336 336 335 337 339 340 339 340 337 338 339 338 337 337 340 332 331 332 333 331 330 331 326 328 327 326 326 327 327 327 329 331 333 331 331 332 332 333 334 335 337 342 341 341 340 338 339 339 339 339 337 336 334 334 333 333 332
336 335 336 337 338 339 339 338 338 338 339 338 337 339 336 334 333 333 334 334 334 333 333 333 334 334 334 336 336 334 335 335 336 336 336 336 335 336 335 335 334 334 336 331 331 330 328 330 331 331 331 329 328 328 327 330 328 328 329 329 331 330 330 330 331 332 334 335 338 343 341 341 341 339 339 339 338 338 338 337 335 334 333 332 333
335 334 335 337 338 339 338 337 336 337 338 338 337 336 335 334 333 332 332 332 332 333 333 332 333 333 335 336 334 333 333 333 333 333 333 333 333 333 332 332 330 330 333 330 329 330 331 330 329 330 329 329 329 329 328 328 328 328 328 328 329 331 331 331 331 332 333 335 340 342 341 341 342 339 339 339 338 339 337 336 334 334 334 333 333
334 333 334 336 337 338 339 337 336 337 337 337 335 335 335 333 333 337 332 336 334 333 332 331 333 335 336 336 337 334 333 332 332 332 331 331 332 332 332 330 329 329 331 330 328 328 328 329 331 330 329 329 329 328 327 327 329 329 328 328 329 330 331 331 332 331 331 332 336 341 341 341 341 341 339 338 338 339 338 337 335 334 334 333 332
333 332 332 335 337 339 339 337 336 337 336 335 334 335 334 333 334 332 331 340 331 331 333 332 333 335 335 336 337 333 333 332 332 332 330 332 331 331 331 330 330 330 330 329 329 328 326 329 329 331 329 328 328 327 327 329 328 328 327 328 329 329 331 331 332 332 331 331 334 338 342 342 339 340 339 338 339 339 338 337 336 334 334 333 332
333 332 332 335 338 340 339 337 336 337 336 335 333 333 332 332 331 331 333 337 331 332 333 333 332 334 333 334 335 333 332 331 330 330 331 330 330 330 330 329 329 329 330 330 329 328 326 327 327 329 330 328 327 328 326 328 328 327 327 327 328 329 329 331 331 332 332 332 333 337 341 340 339 339 340 338 339 338 337 335 337 335 334 333 333
333 331 333 335 339 340 338 337 337 338 336 334 333 332 332 331 331 331 334 333 331 335 333 333 333 333 333 334 335 335 333 332 330 329 330 331 330 330 329 330 329 328 329 329 331 332 328 328 329 329 328 328 327 327 326 327 329 329 328 327 328 328 330 332 332 333 333 333 333 334 338 340 340 340 339 338 338 336 336 335 335 336 335 334 334
331 330 332 336 338 339 338 337 337 337 336 334 334 332 331 332 331 332 332 332 333 332 334 334 337 333 333 333 334 333 335 331 331 331 331 331 330 330 330 330 331 330 331 330 331 331 330 330 332 330 328 328 327 326 327 327 327 329 329 330 330 329 330 331 332 332 333 332 332 332 333 336 340 341 340 339 339 338 336 333 334 336 336 336 335
331 331 333 336 337 337 337 337 337 336 334 334 333 332 332 333 331 331 332 333 333 334 333 333 333 333 333 333 333 333 333 333 330 333 334 331 331 329 329 331 332 332 332 331 333 331 332 331 330 330 328 328 327 326 328 327 326 327 328 330 331 331 332 332 332 332 332 332 332 331 331 332 332 338 338 340 339 339 337 335 333 335 338 337 336
331 332 333 335 337 337 337 337 336 334 334 334 333 332 332 332 332 332 335 333 333 332 333 332 334 333 333 333 333 333 333 331 332 331 330 328 327 328 327 329 331 332 331 331 331 328 330 330 329 329 331 326 325 324 325 326 327 327 327 328 330 330 330 331 331 331 331 331 331 330 329 329 330 331 335 340 339 339 338 337 334 335 338 335 335
331 331 333 335 337 337 337 336 336 334 335 334 333 332 332 332 332 333 333 333 334 332 331 332 332 332 333 332 333 334 332 332 332 330 327 327 327 327 327 329 332 332 331 331 330 330 330 330 328 327 326 326 326 325 325 326 326 327 327 328 329 330 330 329 331 332 331 330 329 329 329 328 328 332 332 330 338 337 337 338 336 335 334 333 334
330 331 334 337 337 337 337 336 335 334 333 334 332 332 332 331 331 336 333 334 333 332 331 332 333 331 332 330 331 332 332 333 331 329 327 326 327 327 328 331 332 331 330 329 330 329 328 328 327 327 325 325 325 324 324 325 327 328 328 329 328 328 327 329 330 331 331 331 330 329 329 329 329 328 334 328 330 335 337 338 339 339 337 334 333
330 331 333 336 336 336 336 333 333 333 333 333 332 331 331 331 332 335 334 334 333 332 332 332 333 333 332 332 332 333 332 332 331 329 328 327 326 327 327 331 331 330 328 327 327 328 328 328 327 327 326 325 325 324 324 325 326 327 328 328 328 328 327 329 329 330 331 329 328 328 328 327 331 338 328 328 330 332 337 339 339 339 338 339 337
331 332 334 336 336 334 332 331 331 333 333 333 332 331 332 333 333 333 334 333 332 332 333 334 334 334 334 333 333 332 332 331 331 329 327 329 328 328 328 330 330 329 328 327 326 325 327 329 327 327 326 325 324 324 324 325 326 327 327 327 327 327 327 328 329 332 330 329 328 327 327 327 329 329 329 329 330 331 333 336 338 337 337 336 336
332 334 336 336 335 333 332 332 331 332 333 332 332 332 331 331 329 331 332 331 330 331 332 334 334 333 333 333 334 333 334 331 331 330 329 329 328 328 328 328 329 328 327 326 327 328 327 324 325 325 326 325 324 324 325 326 326 326 326 326 326 327 327 328 329 329 328 328 330 330 329 327 328 328 328 328 329 330 330 329 329 330 332 336 336
330 333 335 335 335 334 334 332 332 333 332 331 332 331 330 329 328 327 327 327 327 330 331 333 332 331 333 333 333 332 333 332 331 330 330 328 328 327 328 328 329 328 327 326 325 327 326 324 323 325 325 326 325 325 325 325 324 324 325 325 326 326 328 327 328 328 327 328 330 329 328 327 327 329 329 327 329 328 329 328 331 330 332 333 332
330 333 334 334 335 334 333 331 331 331 330 329 329 328 327 325 324 326 326 327 328 328 331 329 330 330 333 334 334 333 332 333 331 329 329 332 328 327 327 326 328 328 327 326 324 325 323 322 324 322 322 322 323 324 324 325 322 320 321 322 322 325 327 328 327 327 327 327 329 328 327 326 326 327 327 327 328 329 329 329 329 331 330 328 326
327 329 331 333 334 334 332 331 330 330 329 329 328 327 327 326 325 325 324 326 326 326 326 325 329 331 330 331 332 331 331 332 332 330 331 328 327 327 327 326 326 327 326 325 323 326 324 324 324 322 321 319 320 323 324 322 318 317 317 317 321 323 324 324 327 327 327 326 325 326 327 327 327 327 326 326 327 328 328 329 329 330 330 326 322
327 327 329 332 333 332 331 329 329 329 328 328 327 326 326 327 326 324 325 324 326 326 326 327 330 330 329 330 330 330 331 332 332 331 330 329 328 327 327 326 326 328 325 324 323 323 323 327 324 322 322 321 322 323 322 319 318 318 318 317 314 314 317 318 322 325 326 323 324 326 328 327 328 330 327 327 327 328 329 329 329 329 328 324 322
325 326 328 331 332 331 330 329 329 329 328 328 328 328 328 326 326 324 323 324 321 324 324 326 327 327 327 328 327 330 330 331 331 331 330 329 328 327 326 326 326 327 325 324 322 322 322 323 323 321 322 320 318 320 322 322 321 320 314 312 312 314 311 311 315 321 325 326 324 325 328 328 329 329 327 327 327 326 326 329 329 329 324 318 314
325 327 329 330 331 329 330 330 329 329 329 331 329 327 327 323 323 323 322 321 322 322 323 322 323 325 324 324 327 328 329 329 328 329 330 328 327 327 326 326 326 326 326 325 324 324 324 323 323 323 322 319 317 319 320 322 322 321 317 313 310 310 310 312 316 316 320 320 323 326 327 327 328 327 326 327 326 325 326 322 318 316 314 313 313
325 327 330 331 331 330 330 330 330 330 330 329 327 326 324 322 321 319 318 317 317 319 319 321 321 322 321 322 324 325 328 328 328 328 328 328 326 327 326 327 325 325 327 325 325 324 324 323 324 325 321 318 319 317 317 320 322 324 320 317 314 311 313 314 311 309 315 318 320 325 325 326 327 325 324 325 325 325 321 317 315 313 313 313 312
325 327 329 330 331 331 331 331 330 330 329 327 325 325 322 322 321 319 318 318 317 318 320 323 323 321 322 321 322 323 326 328 326 326 325 325 324 325 325 326 326 324 326 326 325 326 326 327 326 324 323 321 319 317 319 318 320 321 322 323 322 318 320 315 307 309 308 311 313 318 321 324 324 323 323 324 322 320 318 318 316 315 313 312 310
325 326 328 330 331 331 331 330 330 329 328 326 324 324 322 321 319 318 318 318 319 318 320 321 322 322 321 320 319 320 323 325 325 324 325 324 323 323 323 323 325 326 327 325 324 324 327 327 327 325 324 322 320 319 318 320 320 319 321 320 320 320 319 315 315 312 310 309 309 313 313 317 317 316 319 318 318 317 315 315 314 312 311 310 309
325 326 328 330 331 331 331 330 329 328 327 325 324 324 324 323 321 321 320 320 319 319 320 322 321 322 319 318 319 319 320 320 321 322 321 323 325 324 324 323 323 325 326 326 324 325 325 325 325 324 323 321 320 318 320 320 320 319 318 316 320 319 317 317 315 312 309 308 306 309 310 310 311 313 315 315 315 314 313 312 312 311 311 309 308
325 327 329 331 331 331 329 329 328 327 326 325 324 324 323 323 322 322 322 319 319 318 320 320 319 319 318 317 317 317 317 319 320 320 322 322 321 321 320 320 322 324 325 323 324 324 324 324 325 325 324 322 320 320 320 320 321 320 319 318 317 315 315 313 312 310 311 309 309 308 307 307 307 309 313 313 313 312 311 310 308 307 306 305 305
325 328 329 330 330 330 329 327 327 325 325 324 324 323 323 323 323 323 321 317 317 317 317 316 317 317 318 316 316 317 318 319 319 319 320 321 322 322 320 321 322 325 324 324 324 324 323 324 325 325 324 323 321 319 318 319 320 320 318 318 318 317 314 311 311 310 309 308 308 308 308 308 309 308 310 312 311 309 308 307 305 305 304 304 304
Wind_Speed
3 8 6 10 12 15 17 17 18 19 19 19 18 19 19 19 19 19 18 18 17 17 18 18 18 18 19 18 18 18 18 18 18 18 17 18 18 19 18 17 17 18 18 18 17 17 16 17 17 16 16 17 17 17 17 17 16 15 15 15 15 16 16 17 18 18 19 17 17 17 16 16 16 15 14 16 17 15 16 16 13 9 6 11 17
9 7 7 8 13 15 16 17 18 19 19 19 19 19 19 19 19 19 18 17 17 17 17 17 18 18 18 17 17 17 17 17 17 17 16 17 18 18 18 17 18 18 18 18 17 16 16 17 16 16 16 16 16 16 16 16 16 16 15 14 15 15 16 17 16 17 17 17 16 17 17 17 16 15 15 16 16 17 16 16 16 8 5 15 18
11 9 7 10 14 16 17 18 19 19 19 19 20 19 19 19 19 19 18 18 16 16 16 16 17 18 17 16 16 16 16 16 16 16 17 16 16 17 17 17 18 18 18 17 17 16 15 16 16 15 15 15 14 15 16 15 15 14 13 15 16 14 17 17 18 17 16 17 16 15 17 17 16 15 14 15 15 16 17 16 16 13 9 18 17
12 9 8 12 16 15 16 17 18 19 19 19 19 18 18 19 19 18 18 17 16 16 16 16 15 16 15 15 15 15 16 16 15 15 15 16 16 16 16 17 18 18 18 17 16 16 15 15 15 14 14 14 14 15 15 15 14 13 14 14 13 13 14 16 18 18 16 15 14 10 5 4 10 14 14 14 15 17 16 16 17 16 17 17 18
12 10 9 9 10 14 16 17 18 19 20 19 18 20 20 19 19 18 17 16 16 16 16 15 15 15 15 14 14 14 14 14 15 15 14 14 16 16 16 16 17 17 16 16 15 15 14 13 14 13 13 13 13 14 14 14 14 13 12 12 12 11 13 14 17 14 13 14 13 9 4 5 4 14 14 13 12 15 16 16 16 16 17 18 18
11 10 9 9 9 12 17 17 18 20 20 20 19 19 20 19 18 18 18 18 17 15 15 15 15 14 15 14 14 14 14 14 14 13 11 12 13 15 15 16 15 14 15 15 15 14 14 13 11 11 11 11 12 13 13 13 13 13 11 11 10 10 8 5 6 10 11 12 10 4 5 4 3 7 15 13 13 14 15 15 14 15 17 16 16
12 10 10 10 8 11 16 17 19 19 19 20 19 19 19 19 19 18 18 17 17 16 15 14 14 13 14 14 14 14 14 13 12 12 11 10 11 12 14 14 15 14 14 14 14 14 14 13 10 10 10 10 11 12 12 12 12 12 11 11 10 8 7 4 2 5 7 5 4 3 5 5 3 3 14 14 14 13 13 14 14 13 14 14 14
10 10 10 9 8 12 16 17 19 19 19 19 19 19 19 19 19 18 17 17 16 16 15 15 14 13 13 13 13 13 13 14 14 12 11 11 11 11 12 13 13 13 12 13 13 13 13 11 10 9 9 10 10 11 11 11 11 11 10 9 9 8 5 2 1 2 7 5 4 5 5 5 5 4 12 13 13 13 11 11 12 13 14 14 12
10 11 10 9 10 16 17 17 18 20 19 20 20 20 19 19 18 18 18 17 16 15 15 15 15 14 15 14 14 13 13 14 14 14 15 13 11 10 10 10 11 11 10 9 12 13 12 10 9 9 8 9 9 10 10 10 10 10 9 9 8 7 5 6 5 11 7 5 5 5 6 5 4 4 11 14 14 14 13 9 9 11 12 12 12
10 10 10 9 10 16 16 17 17 19 19 19 19 20 20 18 18 18 18 17 16 16 15 16 16 15 14 14 14 14 14 15 15 15 15 14 13 12 11 10 11 12 11 13 13 13 13 10 9 8 8 8 9 9 9 9 9 10 9 9 9 9 10 10 16 11 6 6 6 6 7 8 3 3 12 15 15 15 14 13 9 9 9 12 12
11 10 9 9 11 16 17 17 17 19 20 19 20 20 20 18 18 18 18 17 17 16 15 16 16 15 15 15 15 15 16 15 14 14 14 13 13 12 13 12 11 10 10 11 14 14 13 10 8 7 7 7 8 8 8 8 9 9 9 10 10 10 10 9 9 6 6 6 6 6 10 13 4 3 13 15 16 14 14 14 14 13 14 13 12
10 9 8 8 14 15 16 17 17 17 19 19 20 19 19 18 18 17 17 16 16 16 15 15 14 15 16 15 15 15 15 14 14 14 14 13 13 13 13 12 12 13 15 14 14 13 13 10 7 6 6 6 7 7 8 8 9 9 10 10 10 11 10 9 6 6 4 5 7 7 6 6 5 9 15 14 14 15 14 14 14 14 14 13 13
10 10 8 8 9 14 15 16 16 16 18 19 18 19 18 17 17 17 16 13 14 14 15 15 14 13 14 14 15 14 14 14 14 13 13 13 13 13 12 12 12 13 14 14 14 14 13 11 6 5 5 5 6 6 7 8 8 9 10 11 11 11 9 11 5 5 5 5 6 7 6 5 4 12 14 14 14 14 14 14 13 13 13 13 13
11 9 8 8 8 16 15 15 14 15 17 17 17 17 16 16 16 16 14 13 13 13 12 12 12 13 13 13 14 13 13 14 14 15 14 13 13 13 13 12 12 13 12 12 13 13 12 11 7 4 4 5 5 5 7 7 8 8 9 10 10 10 9 9 7 5 6 6 6 7 5 5 6 13 13 13 14 14 14 14 14 13 13 13 12
12 10 9 8 9 9 16 14 14 15 15 16 15 15 15 15 15 14 14 14 13 13 13 13 13 13 13 14 12 12 12 12 13 14 14 14 13 13 12 13 12 12 12 11 12 12 11 11 8 3 3 3 4 4 6 6 7 7 8 10 9 9 8 5 6 6 6 6 5 7 6 5 11 12 14 14 13 13 13 13 13 14 13 13 12
12 12 10 8 9 9 9 15 15 15 15 15 15 15 15 15 15 14 14 14 13 13 13 12 12 13 13 12 12 11 12 13 12 12 12 13 12 12 13 13 12 11 11 11 11 10 10 10 8 5 2 3 3 4 4 5 6 6 7 8 7 7 8 7 5 5 5 5 4 5 5 6 14 14 12 13 13 13 12 13 13 13 13 13 12
12 11 10 10 9 8 8 8 13 20 16 15 15 16 16 15 14 14 13 13 14 13 13 13 13 13 12 12 12 11 12 13 13 13 12 12 12 12 12 12 12 11 11 10 10 9 9 9 8 6 3 2 4 4 4 5 5 6 7 8 9 7 10 9 6 5 5 5 5 5 5 6 13 14 14 13 14 13 13 13 13 13 12 12 11
10 10 9 9 9 8 8 9 10 9 10 13 15 16 15 15 13 13 13 13 13 12 12 12 13 13 14 14 14 13 13 14 14 14 13 13 13 12 11 12 12 11 10 9 9 9 8 8 7 6 4 1 4 5 5 6 6 7 8 9 8 7 12 10 6 5 4 5 5 5 5 8 12 13 14 13 13 13 13 12 12 12 12 12 12
10 9 9 9 9 8 8 8 9 8 8 7 7 13 15 14 14 13 13 13 11 11 12 12 13 13 13 13 13 14 14 14 14 13 12 13 13 13 12 11 11 11 9 9 8 7 8 7 6 5 4 3 4 6 6 6 7 8 9 11 8 5 13 8 5 4 4 4 4 5 6 11 11 14 14 14 13 12 11 12 12 11 11 11 12
9 9 8 7 8 9 8 8 8 9 8 7 9 9 13 16 14 14 14 13 12 11 11 11 12 12 13 13 14 11 12 11 15 12 14 14 13 10 13 11 10 9 9 8 7 6 5 5 4 3 2 2 3 6 7 6 7 8 8 11 8 7 7 6 5 5 5 4 4 5 8 12 13 14 14 13 13 13 12 10 11 11 11 11 11
6 7 7 7 8 8 8 7 9 10 9 8 8 8 11 15 13 15 15 13 12 12 11 11 11 11 10 9 8 5 4 5 7 6 11 7 9 11 12 12 10 9 8 7 6 5 4 4 3 3 1 1 2 6 7 7 8 8 7 9 6 6 5 6 6 5 4 4 4 5 11 12 12 13 13 13 13 12 11 10 10 10 11 11 11
7 7 7 8 7 7 9 9 9 10 9 8 6 7 8 11 8 7 7 8 10 10 8 5 7 4 10 7 4 4 3 2 3 7 3 6 7 10 12 12 10 8 7 6 5 4 3 4 4 2 1 0 3 2 3 5 7 7 6 7 4 5 5 6 5 5 4 4 4 7 12 12 12 12 13 13 12 13 11 10 10 10 10 10 11
8 7 7 8 7 7 8 9 9 8 8 7 6 5 6 5 5 6 6 8 7 6 4 5 4 4 4 4 3 3 2 2 3 4 4 7 6 10 11 11 10 8 7 6 5 4 4 3 3 2 1 2 1 3 3 2 3 5 7 2 3 6 5 5 5 5 5 4 4 11 11 10 12 12 12 13 13 12 11 11 10 10 10 10 10
8 6 7 6 7 7 9 9 9 8 7 6 6 5 5 4 4 4 5 5 4 4 4 5 4 4 4 4 4 3 2 2 7 10 9 4 5 9 11 11 10 8 6 4 4 4 4 5 5 4 3 3 2 3 4 2 2 1 6 1 3 6 5 5 5 4 5 5 5 12 13 12 11 11 12 13 12 12 12 10 10 10 10 10 10
7 6 6 7 7 8 9 9 9 8 9 7 7 6 5 5 4 4 5 5 4 4 5 5 4 4 4 4 4 3 3 4 3 4 4 3 2 2 5 5 4 4 6 3 3 3 3 3 3 3 2 1 2 3 4 5 2 3 5 1 3 5 5 5 4 4 4 5 6 12 12 10 11 12 11 11 12 12 11 10 10 10 10 10 10
6 7 7 8 6 7 8 7 7 7 7 7 7 7 7 6 5 4 4 3 3 4 4 4 4 4 4 4 4 4 4 3 4 4 3 4 3 3 5 5 5 4 3 3 2 2 2 3 3 4 4 3 3 4 3 3 4 6 4 3 4 5 5 4 2 3 4 5 6 12 10 8 10 12 10 10 10 11 11 10 9 9 9 9 9
8 6 7 7 7 8 9 8 8 7 6 5 6 5 6 5 5 3 4 3 2 4 4 4 4 4 4 4 4 4 4 4 5 4 3 2 3 4 5 5 4 4 2 3 1 2 2 3 4 3 3 4 4 4 4 5 0 6 5 4 3 5 5 5 3 1 2 4 6 11 9 6 7 11 10 9 9 10 10 10 9 9 9 9 9
9 8 7 7 8 9 10 10 8 8 6 5 6 5 4 5 4 4 1 1 4 3 4 4 4 5 4 4 4 4 4 4 4 4 3 3 3 4 4 4 3 3 2 2 1 1 2 3 3 4 3 3 3 4 4 2 7 7 7 4 4 5 5 5 4 2 1 2 4 9 8 5 6 11 11 9 9 10 11 10 9 8 8 8 9
8 9 7 8 9 8 10 10 9 9 7 6 5 4 4 4 3 3 2 3 3 3 4 3 4 4 4 4 4 5 4 5 5 4 3 4 4 4 4 3 3 2 2 2 1 0 1 2 3 3 3 3 3 3 4 7 7 6 7 5 5 5 5 5 5 4 3 3 3 6 8 7 5 7 10 10 11 10 10 10 10 9 8 8 8
10 10 10 8 9 9 11 11 10 9 7 6 5 5 4 5 4 3 4 3 2 4 4 4 4 4 4 5 4 4 4 4 4 3 4 4 4 4 4 3 3 2 2 1 0 2 1 2 2 3 3 3 3 2 3 5 6 5 5 6 4 5 5 6 5 5 4 3 3 5 7 8 7 5 6 10 11 10 10 9 9 9 8 8 8
8 10 9 8 9 10 10 10 8 8 7 7 5 4 4 4 4 4 4 4 3 4 4 4 4 4 5 5 5 4 4 4 4 4 4 4 4 4 4 4 4 3 2 2 2 2 2 2 1 3 3 4 3 1 3 4 4 3 2 4 4 4 4 4 5 5 5 4 4 4 6 8 6 5 7 6 8 8 9 9 9 9 9 8 8
10 9 8 8 9 11 10 10 9 8 8 7 6 5 5 5 5 5 5 5 3 4 4 4 4 4 4 5 5 5 4 4 4 4 4 4 4 4 5 4 4 3 3 3 3 3 2 2 3 2 2 4 3 3 2 4 3 3 2 5 4 4 4 4 5 5 5 4 4 5 5 5 7 6 6 5 7 8 8 7 8 9 10 9 8
6 9 9 10 10 10 11 10 8 8 9 8 7 6 6 6 6 5 5 5 4 4 4 4 4 5 5 5 5 4 3 5 4 4 4 4 4 5 4 4 4 4 4 3 3 3 3 3 3 3 3 4 4 3 3 3 3 3 2 4 5 4 3 4 5 5 5 4 4 4 4 4 4 7 7 5 3 6 8 8 6 8 9 8 8
9 8 10 11 9 7 7 7 8 9 8 7 7 6 6 5 5 5 5 5 4 4 5 4 5 5 4 4 4 3 3 3 4 3 5 5 4 4 4 4 5 4 4 3 3 2 4 4 3 4 4 5 5 2 3 4 4 3 3 3 3 3 4 4 4 4 4 4 4 4 4 4 5 4 3 5 6 5 7 8 7 8 11 8 7
10 10 11 11 10 9 8 7 9 9 9 8 8 7 6 6 6 6 6 5 4 4 4 4 4 4 3 2 3 3 3 4 4 5 4 5 5 4 4 4 5 5 5 4 4 3 4 4 5 6 4 5 4 2 2 4 4 4 3 3 3 3 3 3 3 4 4 4 4 4 4 4 4 4 3 3 5 7 7 6 7 7 8 6 7
11 10 10 10 11 11 10 9 9 9 9 9 7 7 7 6 5 5 5 4 4 4 4 5 4 3 2 2 2 3 3 5 5 5 5 4 4 4 4 4 5 5 4 4 4 4 4 4 3 6 6 5 6 3 2 5 5 4 4 4 3 3 2 3 3 3 4 4 4 4 4 4 4 4 3 4 3 4 7 6 6 5 3 4 4
12 11 9 7 10 10 9 9 9 9 8 8 7 6 6 5 5 5 5 5 5 5 5 4 4 3 3 3 3 3 3 4 4 4 5 4 4 4 4 5 4 5 4 4 4 4 4 4 3 3 6 5 6 5 3 3 5 5 4 4 3 3 1 2 3 4 4 4 3 3 2 2 2 4 3 3 3 3 5 6 6 6 7 9 10
16 15 14 13 10 9 8 8 7 7 7 7 7 7 5 5 5 4 5 5 5 4 4 4 4 4 4 5 3 3 3 4 4 3 4 4 3 4 4 4 4 5 4 4 3 2 3 4 4 2 5 6 5 6 5 4 5 5 5 5 3 3 2 0 2 4 4 5 5 4 4 1 2 3 3 3 3 4 3 5 7 8 8 8 8
13 13 9 8 7 7 7 8 8 8 7 7 7 6 6 4 3 4 4 4 3 3 3 4 5 4 5 4 3 3 3 4 4 4 4 4 4 4 4 3 5 4 4 4 4 4 3 2 4 3 4 5 5 5 6 5 6 6 6 5 4 4 4 4 4 2 4 5 6 4 1 4 1 2 2 3 3 4 3 3 3 3 4 10 10
7 8 9 8 8 7 5 5 7 7 7 7 6 6 5 5 6 3 3 3 3 3 4 4 3 3 3 3 3 3 3 4 5 4 5 4 4 4 4 4 5 5 5 5 4 4 4 4 4 5 7 6 4 5 6 7 6 7 6 4 4 5 5 2 1 2 4 4 4 3 3 1 3 2 2 2 4 3 3 3 3 4 5 9 12
8 9 10 10 9 8 7 7 6 7 7 7 7 7 5 4 3 4 5 5 5 4 4 3 2 2 2 3 3 4 3 4 4 5 5 5 4 4 4 3 5 5 5 4 3 4 3 3 3 3 6 7 3 3 3 6 9 5 5 5 5 5 5 5 4 4 4 2 3 3 4 3 3 3 2 2 3 3 4 5 5 4 5 5 7
9 11 13 11 10 10 9 6 5 5 6 7 7 6 5 5 5 6 4 5 4 4 4 2 3 3 3 3 3 3 4 4 4 4 5 5 5 4 4 4 4 4 4 4 3 3 2 2 3 3 2 5 3 4 5 5 3 5 6 2 4 4 3 4 4 4 4 3 3 3 3 3 3 1 2 3 4 3 4 5 4 4 4 6 5
11 12 10 10 10 9 7 6 6 6 6 6 7 6 4 4 4 4 4 3 1 3 4 3 4 5 4 4 3 3 4 3 4 5 6 5 5 5 5 5 4 4 4 4 3 3 3 3 3 4 4 3 4 1 3 1 5 4 4 5 1 3 1 3 3 4 5 2 3 4 4 3 1 2 4 5 3 3 3 5 4 5 5 5 5
1 1 7 10 9 8 8 8 7 7 7 6 7 5 5 4 1 3 3 3 3 3 3 3 3 3 4 3 3 4 4 4 3 4 4 5 6 5 5 4 4 4 5 5 4 3 3 3 3 3 4 5 2 0 1 1 4 9 4 1 2 2 3 0 1 2 3 2 4 2 2 2 3 3 4 3 1 2 3 4 4 5 6 5 5
14 8 6 7 7 9 9 9 8 8 7 6 6 5 5 3 4 4 4 5 4 4 5 3 3 3 3 3 4 4 4 3 3 3 4 5 4 4 4 4 5 5 5 5 5 4 4 3 3 4 4 6 3 2 1 2 5 2 5 5 2 0 2 2 3 2 2 2 1 0 2 3 3 4 2 1 3 2 5 6 6 6 5 5 4
15 15 13 9 8 8 8 7 7 7 7 6 6 6 6 7 7 8 8 6 6 6 6 6 3 4 4 1 3 3 4 4 3 3 3 4 4 4 4 4 4 4 5 5 4 3 3 3 3 4 4 3 6 4 2 0 4 2 3 2 5 5 5 4 3 1 1 1 2 1 1 1 2 4 3 3 5 6 6 6 6 6 5 5 4
13 11 12 11 9 9 9 9 8 7 6 5 6 6 6 6 8 9 8 9 9 5 5 5 6 3 3 4 4 3 4 5 3 3 3 3 3 4 4 4 3 3 2 4 5 5 4 4 3 4 4 5 5 5 6 4 1 0 1 1 1 2 7 7 3 4 4 2 3 2 1 1 2 3 3 4 5 6 5 6 6 6 5 5 5
10 8 9 10 11 10 9 8 6 6 5 6 7 7 8 7 7 7 8 8 8 7 7 5 4 4 5 4 4 4 4 4 5 3 3 3 3 3 3 3 4 4 3 3 3 3 4 3 4 4 4 4 5 7 6 5 7 3 0 3 3 4 5 3 3 6 6 7 2 2 2 3 3 2 4 6 6 6 6 6 6 6 5 4 3
10 11 10 10 10 10 9 8 8 7 6 7 8 6 7 8 8 8 8 6 7 7 6 6 6 5 5 3 4 4 4 3 3 4 3 3 3 3 3 3 3 3 3 3 2 2 3 4 4 4 5 4 3 3 6 6 5 5 4 3 5 4 3 4 4 3 5 7 2 2 1 3 5 4 5 5 5 5 5 5 5 5 4 4 3
14 13 13 14 14 12 11 10 9 6 7 7 7 6 5 7 8 7 8 6 6 6 6 6 5 4 5 4 4 5 5 6 5 4 5 4 3 3 2 3 4 3 2 3 3 3 3 3 5 5 4 4 3 4 5 5 4 4 4 5 4 3 4 3 3 4 4 3 8 6 3 5 5 2 5 6 6 5 5 5 5 5 4 4 3
13 17 17 14 12 12 12 11 8 5 6 7 7 8 6 7 8 8 8 8 8 8 8 6 5 4 6 4 5 4 4 6 5 4 4 4 4 4 3 4 3 3 3 4 4 5 4 4 4 3 5 6 5 4 3 4 4 4 3 5 7 9 9 6 7 4 4 5 6 5 4 3 7 8 3 5 6 5 4 4 6 4 4 3 3
Wind_Direction
185 135 134 144 138 128 126 121 119 118 118 119 119 117 116 114 111 110 109 107 105 103 101 100 99 99 100 101 101 100 101 103 104 103 104 103 103 105 107 106 104 103 102 99 98 95 94 94 91 92 93 94 93 91 88 88 89 91 91 92 93 87 87 84 87 84 82 82 81 78 77 84 88 87 81 79 81 81 81 79 74 72 65 76 76
147 132 131 136 134 128 122 121 120 119 119 121 121 121 118 115 113 112 111 110 108 105 103 102 102 102 102 101 101 100 101 103 104 105 105 105 105 109 111 108 105 105 101 100 99 100 99 94 93 92 92 90 89 89 91 91 90 89 90 93 93 94 89 87 86 85 86 84 78 79 81 81 85 88 86 82 83 79 75 81 77 68 61 77 74
129 128 131 134 132 127 124 122 121 120 121 123 124 121 119 117 116 114 113 110 108 106 105 104 105 105 106 105 105 105 105 106 107 106 107 109 112 115 114 111 110 105 104 103 102 99 97 100 98 95 92 90 90 90 87 87 88 86 89 97 100 101 98 92 87 83 81 79 80 78 80 87 82 81 84 83 82 83 79 80 81 78 77 74 71
123 126 129 136 130 128 127 124 123 123 124 125 124 122 121 120 117 115 113 110 109 108 107 106 107 108 108 110 109 109 108 109 109 108 106 110 111 106 109 113 109 107 106 105 105 104 98 95 95 95 96 91 88 86 86 85 84 86 90 97 102 105 100 99 95 87 84 84 82 71 52 42 87 87 90 86 84 78 74 80 84 84 78 75 72
120 124 127 125 130 130 129 127 127 126 126 126 125 125 123 121 119 116 112 111 110 109 108 107 109 111 112 112 113 113 112 113 114 115 115 113 111 116 117 113 108 107 106 104 103 105 105 98 94 94 93 92 89 88 87 87 85 85 88 96 105 102 110 111 111 80 83 91 89 81 61 46 63 94 90 83 86 84 80 76 77 80 77 73 72
123 123 125 127 133 134 132 131 129 128 128 128 128 126 126 122 120 118 115 114 112 109 110 110 111 112 114 115 115 114 114 112 111 107 106 111 116 123 120 109 105 107 106 105 104 104 104 100 100 96 91 90 87 85 82 83 86 87 87 87 91 98 108 102 120 42 69 83 85 74 80 64 36 78 90 96 103 90 84 80 78 79 77 73 76
119 123 126 132 134 137 135 132 130 130 130 130 129 128 127 126 123 119 117 116 115 113 113 112 112 113 114 115 114 113 113 111 100 96 93 95 98 103 109 109 110 112 112 107 103 103 104 105 101 92 86 82 79 76 76 77 75 76 77 81 82 75 64 61 41 64 76 74 66 70 77 78 47 39 92 102 97 89 82 87 80 79 79 78 79
117 126 131 134 138 141 137 133 133 132 132 132 131 130 129 127 124 120 117 117 116 116 117 118 117 115 114 115 114 111 111 112 112 110 105 106 110 110 112 112 113 112 112 113 110 105 105 103 98 90 82 79 75 74 73 72 73 70 67 68 69 67 54 26 343 128 109 87 80 77 74 68 62 60 85 84 88 84 85 98 93 84 78 73 67
122 129 129 134 141 143 139 135 135 135 135 134 134 132 129 127 124 119 119 119 119 120 120 119 120 120 118 114 113 111 112 113 113 109 102 98 93 99 103 106 95 89 85 88 103 104 101 101 94 86 80 75 70 67 65 66 66 65 61 56 52 48 25 356 109 118 106 109 94 86 84 81 76 84 86 87 86 83 86 73 83 88 88 79 78
124 129 131 137 144 144 139 137 137 137 138 137 136 134 131 126 124 121 122 123 124 123 121 121 121 120 119 115 113 111 111 110 109 102 95 94 89 89 92 98 102 100 99 101 105 107 105 103 96 81 73 71 65 61 61 58 57 57 50 45 37 32 29 34 97 102 112 112 109 101 98 94 83 95 109 109 98 100 97 90 90 91 88 89 85
130 130 131 138 144 142 139 138 139 140 140 139 137 134 131 127 125 125 126 125 124 124 124 124 122 122 120 119 114 112 109 107 104 100 99 98 97 95 93 91 91 96 95 95 106 108 109 105 97 93 83 72 63 60 51 49 46 47 42 38 35 31 38 69 89 104 108 111 109 103 101 98 88 86 95 94 101 96 94 98 97 91 88 88 84
127 127 130 136 143 141 139 139 140 143 142 140 136 134 130 127 127 128 126 126 125 124 125 124 120 120 122 120 117 114 109 107 105 106 105 103 102 99 97 94 94 93 94 99 104 108 109 106 100 96 88 72 60 48 42 36 39 38 37 38 33 30 43 84 95 104 106 106 104 106 103 103 98 100 97 93 94 99 102 96 96 94 92 89 89
125 131 130 136 135 140 138 139 141 143 142 138 132 131 130 129 129 127 125 124 123 124 124 123 121 120 121 122 121 117 115 113 110 109 110 110 108 105 103 101 97 98 101 105 110 112 112 114 109 97 84 72 54 43 35 28 26 32 34 37 34 33 52 103 99 95 91 99 106 105 106 103 99 101 103 104 101 96 93 94 89 86 88 90 89
133 130 128 128 140 139 136 136 137 139 139 132 130 130 131 131 128 126 123 123 121 120 121 121 121 121 121 122 122 121 118 118 118 116 115 114 113 112 110 106 103 104 107 109 115 116 119 119 120 112 94 64 47 29 28 23 22 26 35 44 40 38 63 99 101 98 102 104 107 110 107 107 110 110 105 100 103 105 103 100 98 94 92 89 85
132 129 128 133 135 134 135 134 135 134 131 128 127 129 128 127 124 121 121 120 117 117 120 123 122 124 126 125 122 120 119 116 116 117 117 117 117 115 114 113 112 113 115 117 116 119 118 120 119 102 62 49 41 25 18 12 12 22 36 48 50 48 71 112 109 110 112 116 116 114 107 111 114 108 109 110 107 102 100 96 94 97 95 90 86
126 130 134 133 132 136 134 138 131 127 124 125 127 125 124 124 120 120 120 121 122 123 123 125 127 128 129 128 127 126 123 116 110 109 112 114 114 114 112 112 115 119 121 120 120 117 120 119 118 110 39 15 6 5 5 355 2 12 33 55 55 58 97 109 114 111 112 122 123 117 113 111 113 110 106 110 110 105 101 103 103 98 92 92 92
131 135 133 131 131 130 134 127 131 130 124 124 124 124 125 120 118 119 120 122 126 127 128 127 125 125 130 133 131 131 125 119 118 117 116 116 115 113 116 118 120 123 124 123 125 124 124 124 123 119 108 337 328 325 332 337 347 358 27 48 50 53 117 122 109 112 126 127 123 116 116 114 116 115 116 109 104 104 108 107 105 102 101 98 92
129 127 124 124 123 125 122 124 119 112 123 126 123 124 122 120 120 121 122 125 128 128 126 123 124 131 137 142 142 138 130 126 124 124 126 127 125 126 123 123 122 122 125 127 131 132 130 128 128 134 141 221 292 304 314 328 340 351 15 39 45 59 120 115 121 128 132 126 118 120 119 127 124 115 113 114 113 116 110 107 109 106 101 94 90
124 122 122 125 126 121 115 113 112 111 113 116 121 125 121 124 125 125 126 127 126 127 128 128 134 142 148 144 138 131 125 123 126 127 130 131 134 132 132 128 124 125 129 131 129 121 129 131 138 144 157 178 276 289 304 325 332 350 16 33 45 92 121 118 130 130 116 115 124 123 127 126 121 118 119 117 115 108 106 107 104 103 102 104 103
125 123 120 120 125 121 117 113 115 117 116 120 127 128 129 130 127 128 131 130 130 132 133 137 144 148 143 138 137 136 133 134 136 138 140 140 138 136 134 128 125 126 129 128 126 126 133 133 135 140 153 189 272 291 307 327 332 341 17 38 38 85 116 128 120 113 119 131 132 133 133 126 125 120 115 113 112 114 112 108 109 108 104 100 98
113 108 115 126 126 121 116 114 119 121 122 124 128 132 136 133 134 136 134 131 133 138 140 142 144 145 138 131 124 117 125 136 134 132 138 130 129 135 131 126 125 130 126 120 118 127 131 124 108 94 70 346 313 303 316 324 328 332 19 50 43 84 100 109 115 123 131 137 133 129 130 131 125 122 120 118 116 114 115 116 112 107 105 103 104
120 116 124 135 129 121 120 120 122 126 128 130 137 139 137 138 132 122 124 129 134 140 141 135 131 113 136 125 116 134 108 95 110 129 101 120 127 142 130 126 128 124 118 114 117 117 105 101 101 107 96 26 312 327 332 336 327 331 14 65 53 98 104 116 122 128 133 135 132 132 129 128 127 125 124 123 122 121 119 119 118 115 111 109 107
123 123 133 145 134 122 120 123 125 127 126 129 133 130 125 111 110 122 132 138 150 144 133 113 91 102 87 80 76 56 82 100 114 122 105 123 148 144 132 125 120 117 113 110 108 95 80 80 70 74 58 1 359 313 307 324 311 324 48 35 72 107 109 113 122 131 139 146 131 134 131 129 131 131 129 128 126 122 123 123 121 117 116 115 114
132 142 142 135 128 122 120 123 125 124 123 128 131 125 112 98 102 101 112 139 150 135 116 104 87 81 82 70 61 49 58 94 149 142 132 130 151 140 127 118 117 114 104 76 66 71 56 45 25 19 42 6 340 312 301 291 300 331 73 8 106 114 116 126 132 139 153 143 138 137 135 136 136 131 134 135 131 127 123 123 123 123 123 120 116
141 142 135 132 131 126 126 128 130 132 135 140 141 128 106 103 116 127 141 157 142 124 101 97 100 94 90 75 63 63 43 33 54 92 92 130 164 138 101 90 87 78 81 57 51 42 45 38 37 33 29 2 331 311 310 298 280 46 80 197 128 122 124 130 138 150 153 141 143 141 143 148 139 136 139 135 132 126 120 122 125 125 124 122 119
153 151 142 133 131 125 126 129 127 134 141 151 137 128 126 139 133 147 154 155 143 109 96 103 98 96 95 92 83 75 71 69 92 109 135 162 151 113 98 92 84 87 82 75 46 28 29 40 30 26 13 14 358 317 286 275 285 80 115 109 113 99 90 85 92 145 144 145 147 143 142 145 138 138 136 135 133 125 121 123 124 125 125 124 122
169 152 133 136 137 135 132 136 134 139 151 145 117 121 143 143 134 147 160 156 88 91 93 90 91 94 100 110 109 107 109 116 124 137 161 147 117 88 88 93 105 98 96 107 75 25 14 34 31 40 37 29 359 325 294 279 106 100 79 54 63 97 104 113 88 102 135 137 139 138 138 144 139 137 139 138 133 128 123 125 126 128 129 128 123
154 142 136 143 150 147 139 138 141 149 159 145 122 140 147 133 138 156 106 110 84 86 95 100 106 107 115 127 131 129 134 139 147 147 138 114 102 100 102 104 115 126 104 95 86 32 22 29 37 42 43 38 14 340 327 75 98 100 109 117 132 113 117 113 102 62 13 88 116 131 130 128 119 145 141 139 137 135 134 132 131 132 133 128 124
158 141 146 148 155 150 135 141 150 156 161 134 139 150 134 112 124 117 111 143 69 99 116 123 119 125 136 151 147 148 158 163 162 150 128 117 110 96 103 108 104 104 89 69 109 92 62 48 59 53 50 51 36 12 42 91 106 113 122 144 143 102 99 107 116 117 77 58 95 120 131 130 113 131 142 140 141 137 134 137 134 130 131 129 127
170 146 151 152 149 152 143 148 156 162 148 140 143 140 137 126 110 122 154 123 98 123 133 143 150 138 154 163 157 162 176 160 146 138 122 110 107 103 101 104 102 98 89 85 68 84 71 52 44 63 65 67 62 42 80 93 109 136 146 150 92 95 117 133 127 105 99 98 98 96 110 131 134 131 131 141 146 143 142 139 139 131 133 136 134
149 152 144 146 148 152 139 146 157 155 143 151 140 141 134 121 122 140 141 140 151 139 150 156 167 166 167 161 173 173 154 149 144 132 112 119 112 114 111 114 115 137 124 121 103 93 88 118 112 104 114 101 91 68 89 103 124 141 149 94 95 89 90 85 108 116 112 114 106 96 94 97 108 143 146 145 149 146 142 141 144 141 142 145 140
159 152 136 139 143 144 139 150 160 146 148 149 140 141 141 142 144 151 158 157 162 164 165 172 176 176 171 171 175 175 157 149 142 133 123 120 122 118 123 127 145 150 140 129 113 113 120 127 131 113 118 109 99 77 70 116 130 120 128 106 102 100 76 91 114 121 120 113 107 101 96 102 106 117 138 145 142 144 145 140 150 156 156 153 140
151 132 131 135 136 140 146 157 155 146 148 151 147 148 152 153 154 165 162 159 174 171 173 181 184 184 185 175 170 168 158 148 140 137 127 121 123 114 118 147 157 150 140 144 136 130 122 108 95 106 97 90 87 66 76 62 84 76 91 102 118 115 107 105 129 134 130 129 114 102 100 101 97 94 97 94 127 164 147 141 145 155 151 151 142
135 129 130 135 136 142 150 158 155 149 145 146 144 156 161 151 153 161 162 161 178 176 180 180 185 189 185 176 155 163 154 128 132 125 125 123 123 127 131 144 152 138 126 135 132 130 108 114 115 85 84 92 90 79 89 87 66 57 60 68 93 115 115 103 117 125 127 118 107 104 105 97 99 97 87 88 97 97 122 136 145 133 150 155 164
126 129 134 137 139 149 162 164 158 152 147 151 152 156 156 152 157 159 163 169 174 178 179 182 183 192 185 177 156 169 142 124 131 138 135 133 132 134 121 133 131 124 128 141 134 125 116 130 134 103 94 86 86 68 71 79 76 72 46 61 74 72 88 107 100 140 128 117 116 119 117 112 110 110 102 91 90 101 107 126 146 154 151 154 177
124 121 125 136 145 160 170 159 157 152 153 153 151 152 153 154 153 158 156 166 166 177 187 190 193 193 183 180 184 178 137 137 147 150 141 139 143 142 134 127 131 124 126 124 122 127 134 127 134 129 109 99 102 76 44 77 71 67 59 62 60 51 78 123 137 129 132 129 129 131 126 130 123 128 121 94 87 91 92 81 62 49 80 151 173
98 95 114 145 155 164 160 151 150 147 149 148 144 139 141 155 160 158 163 162 175 185 192 194 196 192 182 191 200 192 137 139 161 158 138 140 147 136 137 132 136 129 125 125 127 147 134 122 103 122 127 128 119 115 76 71 85 78 72 70 63 71 56 141 146 128 112 110 106 112 121 114 149 137 97 103 98 92 95 91 79 70 60 47 51
124 146 158 155 159 159 154 151 142 139 151 149 144 140 151 151 153 157 161 172 188 192 192 189 197 195 187 200 193 175 141 152 159 136 125 150 146 139 136 130 130 127 128 126 136 123 117 122 117 97 124 125 130 128 115 86 80 82 79 71 47 35 8 339 51 70 73 85 66 17 356 42 67 104 124 126 125 103 91 87 76 62 55 50 52
141 146 134 136 137 154 156 157 146 142 142 130 129 128 129 127 129 148 164 184 195 208 200 206 210 189 194 192 176 163 160 157 143 141 128 122 120 125 131 135 130 121 115 114 122 122 123 134 129 107 82 87 126 137 125 113 91 84 74 57 49 27 7 11 47 114 140 118 120 132 135 292 89 86 112 120 111 98 91 84 84 80 64 65 77
123 106 122 135 145 156 158 144 143 137 127 124 127 129 135 145 147 133 153 195 210 205 224 223 212 200 200 176 157 153 150 150 140 141 131 129 125 132 134 133 128 119 119 125 135 139 139 129 122 117 101 83 79 115 121 113 88 74 66 51 45 34 28 27 36 58 51 83 113 136 134 336 49 55 80 95 99 102 100 89 76 69 68 75 70
130 128 138 150 152 157 155 158 145 136 135 138 142 145 146 132 122 170 186 189 197 203 213 232 226 207 184 163 163 149 135 137 138 135 134 132 132 136 131 134 133 126 133 146 150 136 130 134 121 98 116 106 91 102 126 116 110 76 54 43 31 30 30 32 24 31 60 64 65 96 69 50 29 48 17 27 83 92 94 80 69 61 71 63 53
163 153 156 147 147 154 162 154 135 138 148 150 148 153 160 170 164 181 184 175 180 176 209 231 199 182 161 165 173 154 145 148 147 139 131 132 137 135 138 137 126 130 138 142 137 140 117 117 130 95 65 117 115 161 167 121 51 131 127 82 36 24 32 26 26 18 35 36 45 42 52 123 108 7 100 64 25 41 55 70 53 64 62 69 59
157 163 144 141 146 154 154 154 158 152 158 156 150 163 174 170 168 172 170 141 191 185 177 179 168 157 166 172 165 160 146 152 148 140 137 143 144 147 151 144 140 144 129 134 141 149 155 159 156 135 118 64 96 157 191 64 134 106 109 100 141 81 341 16 5 18 14 16 53 74 108 108 51 32 60 60 33 39 75 75 71 83 84 69 61
49 110 153 147 147 153 160 164 164 162 162 170 167 165 165 169 137 127 140 139 161 158 118 114 120 125 168 165 161 160 159 154 148 144 133 141 148 152 150 148 148 150 146 145 151 160 165 171 159 133 126 111 101 143 298 162 130 137 132 151 176 127 120 278 57 338 341 1 47 48 93 119 139 78 60 89 60 87 112 115 116 89 77 70 63
151 164 176 166 157 160 167 167 167 166 167 165 166 144 130 116 88 89 95 78 66 93 95 83 131 157 138 145 173 165 149 133 138 133 133 143 147 150 157 162 155 157 149 149 164 175 180 175 165 144 152 140 141 154 294 124 149 257 150 118 58 347 209 141 120 6 357 25 34 296 114 120 107 111 145 152 127 120 93 83 79 80 77 76 68
156 164 162 162 155 160 164 168 168 165 165 165 153 145 153 144 137 139 141 132 129 128 143 155 159 152 163 157 97 141 135 134 135 137 133 143 148 154 161 161 165 162 157 158 157 149 162 154 169 162 162 152 144 146 157 318 162 192 207 168 167 172 158 166 92 158 333 42 57 47 62 51 101 121 113 92 69 76 88 90 84 79 74 67 59
161 158 156 156 161 162 171 172 170 163 154 153 156 148 139 160 161 158 147 147 150 180 164 161 156 171 119 107 113 126 137 135 147 145 151 157 138 155 157 159 165 163 155 144 158 171 174 177 148 151 182 146 138 151 166 183 89 34 19 267 189 159 143 137 166 129 98 7 40 82 53 44 70 88 98 81 86 85 76 88 84 81 72 60 57
147 143 142 151 159 167 170 172 169 161 156 160 161 156 154 169 149 142 148 153 159 166 160 156 149 142 118 121 99 96 108 137 151 166 167 149 148 149 147 163 169 165 162 162 169 161 160 161 156 168 153 167 175 156 173 179 165 198 91 107 96 114 132 84 120 148 132 127 96 7 34 42 54 35 76 94 101 100 96 83 87 82 76 69 67
155 154 157 157 161 169 169 171 176 167 157 171 161 163 157 163 149 151 154 167 153 147 143 140 138 132 114 102 92 83 82 77 102 112 106 137 154 162 175 193 176 174 164 140 142 154 173 155 143 150 165 185 191 163 153 178 161 166 123 82 105 124 110 98 111 88 128 121 67 130 134 25 56 46 81 93 96 95 102 105 104 107 101 90 82
169 164 164 168 171 168 167 174 184 169 160 171 163 158 171 152 147 158 153 153 136 130 131 137 137 132 120 118 108 96 86 75 66 71 98 98 98 110 137 171 179 157 146 163 163 172 189 160 171 175 167 170 193 168 168 160 160 165 155 152 128 115 94 84 73 97 56 46 148 165 162 141 116 48 106 110 114 112 107 108 105 105 104 101 92
184 181 169 164 160 162 164 176 180 149 162 172 165 165 172 158 158 162 152 144 140 137 133 136 135 121 126 129 117 116 99 104 95 77 87 94 87 85 89 98 117 133 131 147 167 171 163 154 158 159 165 167 180 180 140 144 150 158 151 156 158 160 166 162 166 160 137 125 108 129 139 139 132 125 131 124 122 119 119 121 119 113 115 106 95